| time (UTC) | temp C | wind direction | speed KPH | gust KPH | rain 1hr cm | rain 24hr cm | rain mn cm | humidity % | barometer mb |
| 20260509002551 | 15 | 280 | 1.6 | 4.8 | 0.00 | 0.00 | 0.00 | 69 | 1009.5 |
| 20260509002052 | 15 | 327 | 0.0 | 4.8 | 0.00 | 0.00 | 0.00 | 68 | 1009.6 |
| 20260509001552 | 15 | 330 | 1.6 | 4.8 | 0.00 | 0.00 | 0.00 | 66 | 1009.5 |
| 20260509001052 | 15 | 250 | 1.6 | 8.0 | 0.00 | 0.00 | 0.00 | 65 | 1009.4 |
| 20260509000552 | 15 | 234 | 1.6 | 4.8 | 0.00 | 0.00 | 0.00 | 64 | 1009.3 |
| 20260509000052 | 16 | 243 | 1.6 | 8.0 | 0.00 | 0.00 | 0.00 | 63 | 1009.3 |
| 20260508235552 | 16 | 243 | 1.6 | 8.0 | 0.00 | 0.00 | 0.00 | 62 | 1009.3 |
| 20260508235052 | 16 | 215 | 3.2 | 3.2 | 0.00 | 0.00 | 0.00 | 60 | 1009.3 |
| 20260508234552 | 16 | 241 | 3.2 | 11.3 | 0.00 | 0.00 | 0.00 | 59 | 1009.2 |
| 20260508234050 | 16 | 240 | 3.2 | 8.0 | 0.00 | 0.00 | 0.00 | 59 | 1009.0 |
| 20260508233551 | 15 | 209 | 4.8 | 11.3 | 0.00 | 0.00 | 0.00 | 63 | 1009.0 |
| 20260508233051 | 15 | 248 | 1.6 | 4.8 | 0.00 | 0.00 | 0.00 | 64 | 1009.0 |
| 20260508232551 | 15 | 207 | 1.6 | 3.2 | 0.00 | 0.00 | 0.00 | 67 | 1009.0 |
| 20260508232052 | 15 | 213 | 1.6 | 3.2 | 0.00 | 0.00 | 0.00 | 66 | 1009.1 |
| 20260508231552 | 15 | 167 | 0.0 | 0.0 | 0.00 | 0.00 | 0.00 | 65 | 1009.0 |
| 20260508231051 | 15 | 219 | 0.0 | 1.6 | 0.00 | 0.00 | 0.00 | 65 | 1009.1 |
| 20260508230551 | 16 | 218 | 0.0 | 1.6 | 0.00 | 0.00 | 0.00 | 63 | 1009.1 |
| 20260508230052 | 16 | 229 | 0.0 | 1.6 | 0.00 | 0.00 | 0.00 | 62 | 1009.1 |
| 20260508225552 | 16 | 238 | 0.0 | 1.6 | 0.00 | 0.00 | 0.00 | 61 | 1009.1 |
| 20260508225051 | 16 | 238 | 0.0 | 0.0 | 0.00 | 0.00 | 0.00 | 61 | 1009.1 |
| 20260508224551 | 16 | 238 | 0.0 | 0.0 | 0.00 | 0.00 | 0.00 | 61 | 1009.0 |
| 20260508224051 | 16 | 238 | 0.0 | 0.0 | 0.00 | 0.00 | 0.00 | 60 | 1009.0 |
| 20260508223551 | 16 | 209 | 0.0 | 0.0 | 0.00 | 0.00 | 0.00 | 59 | 1009.1 |
| 20260508223051 | 16 | 273 | 0.0 | 0.0 | 0.00 | 0.00 | 0.00 | 58 | 1009.1 |
| 20260508222550 | 16 | 250 | 0.0 | 0.0 | 0.00 | 0.00 | 0.00 | 58 | 1009.1 |
| 20260508222050 | 17 | 231 | 0.0 | 0.0 | 0.00 | 0.00 | 0.00 | 57 | 1009.2 |
| 20260508221552 | 17 | 234 | 1.6 | 4.8 | 0.00 | 0.00 | 0.00 | 55 | 1009.2 |
| 20260508221052 | 17 | 243 | 1.6 | 0.0 | 0.00 | 0.00 | 0.00 | 54 | 1009.2 |
| 20260508220552 | 17 | 250 | 1.6 | 4.8 | 0.00 | 0.00 | 0.00 | 53 | 1009.1 |
| 20260508220051 | 17 | 246 | 0.0 | 1.6 | 0.00 | 0.00 | 0.00 | 53 | 1009.1 |
| 20260508215551 | 17 | 275 | 1.6 | 8.0 | 0.00 | 0.00 | 0.00 | 52 | 1009.1 |
| 20260508215052 | 17 | 325 | 1.6 | 1.6 | 0.00 | 0.00 | 0.00 | 52 | 1009.1 |
| 20260508214552 | 17 | 247 | 1.6 | 8.0 | 0.00 | 0.00 | 0.00 | 52 | 1009.0 |
| 20260508214052 | 17 | 297 | 1.6 | 3.2 | 0.00 | 0.00 | 0.00 | 52 | 1009.0 |
| 20260508213550 | 17 | 273 | 8.0 | 9.7 | 0.00 | 0.00 | 0.00 | 50 | 1009.0 |
| 20260508213050 | 17 | 227 | 3.2 | 4.8 | 0.00 | 0.00 | 0.00 | 50 | 1009.1 |
| 20260508212552 | 17 | 239 | 3.2 | 4.8 | 0.00 | 0.00 | 0.00 | 51 | 1009.1 |
| 20260508212052 | 17 | 269 | 1.6 | 3.2 | 0.00 | 0.00 | 0.00 | 50 | 1009.1 |
| 20260508211552 | 17 | 269 | 1.6 | 9.7 | 0.00 | 0.00 | 0.00 | 49 | 1009.2 |
| 20260508211052 | 17 | 243 | 1.6 | 4.8 | 0.00 | 0.00 | 0.00 | 50 | 1009.2 |
| 20260508210550 | 17 | 245 | 4.8 | 9.7 | 0.00 | 0.00 | 0.00 | 50 | 1009.2 |
| 20260508210050 | 17 | 291 | 3.2 | 1.6 | 0.00 | 0.00 | 0.00 | 49 | 1009.3 |
| 20260508205550 | 17 | 263 | 4.8 | 9.7 | 0.00 | 0.00 | 0.00 | 49 | 1009.3 |
| 20260508205051 | 18 | 256 | 4.8 | 11.3 | 0.00 | 0.00 | 0.00 | 49 | 1009.4 |
| 20260508204551 | 18 | 253 | 1.6 | 3.2 | 0.00 | 0.00 | 0.00 | 48 | 1009.4 |
| 20260508204051 | 18 | 261 | 4.8 | 11.3 | 0.00 | 0.00 | 0.00 | 48 | 1009.4 |
| 20260508203550 | 18 | 250 | 3.2 | 9.7 | 0.00 | 0.00 | 0.00 | 48 | 1009.5 |
| 20260508203050 | 18 | 305 | 4.8 | 9.7 | 0.00 | 0.00 | 0.00 | 47 | 1009.5 |
| 20260508202550 | 18 | 278 | 3.2 | 14.5 | 0.00 | 0.00 | 0.00 | 47 | 1009.5 |
| 20260508202050 | 18 | 250 | 8.0 | 9.7 | 0.00 | 0.00 | 0.00 | 47 | 1009.7 |
| 20260508201551 | 18 | 259 | 4.8 | 11.3 | 0.00 | 0.00 | 0.00 | 46 | 1009.7 |
| 20260508201051 | 18 | 237 | 9.7 | 16.1 | 0.00 | 0.00 | 0.00 | 46 | 1009.8 |
| 20260508200550 | 18 | 227 | 9.7 | 9.7 | 0.00 | 0.00 | 0.00 | 45 | 1009.8 |
| 20260508200050 | 18 | 264 | 8.0 | 11.3 | 0.00 | 0.00 | 0.00 | 45 | 1009.8 |
| 20260508195550 | 18 | 222 | 12.9 | 19.3 | 0.00 | 0.00 | 0.00 | 43 | 1009.8 |
| 20260508195052 | 18 | 226 | 9.7 | 9.7 | 0.00 | 0.00 | 0.00 | 45 | 1009.9 |
| 20260508194552 | 18 | 220 | 8.0 | 14.5 | 0.00 | 0.00 | 0.00 | 48 | 1009.8 |
| 20260508194052 | 18 | 316 | 3.2 | 8.0 | 0.00 | 0.00 | 0.00 | 49 | 1010.0 |
| 20260508193551 | 18 | 253 | 4.8 | 12.9 | 0.00 | 0.00 | 0.00 | 48 | 1010.0 |
| 20260508193051 | 18 | 221 | 4.8 | 9.7 | 0.00 | 0.00 | 0.00 | 48 | 1010.1 |
| 20260508192551 | 18 | 259 | 4.8 | 9.7 | 0.00 | 0.00 | 0.00 | 47 | 1010.3 |
| 20260508192052 | 18 | 279 | 3.2 | 4.8 | 0.00 | 0.00 | 0.00 | 49 | 1010.4 |
| 20260508191552 | 18 | 239 | 3.2 | 9.7 | 0.00 | 0.00 | 0.00 | 49 | 1010.5 |
| 20260508191051 | 18 | 258 | 9.7 | 16.1 | 0.00 | 0.00 | 0.00 | 47 | 1010.5 |
| 20260508190550 | 18 | 272 | 8.0 | 11.3 | 0.00 | 0.00 | 0.00 | 47 | 1010.5 |
| 20260508190050 | 18 | 275 | 11.3 | 9.7 | 0.00 | 0.00 | 0.00 | 47 | 1010.6 |
| 20260508185550 | 18 | 224 | 11.3 | 19.3 | 0.00 | 0.00 | 0.00 | 48 | 1010.7 |
| 20260508185050 | 18 | 231 | 4.8 | 14.5 | 0.00 | 0.00 | 0.00 | 49 | 1010.7 |
| 20260508184552 | 18 | 188 | 3.2 | 9.7 | 0.00 | 0.00 | 0.00 | 49 | 1010.7 |
| 20260508184052 | 18 | 246 | 8.0 | 9.7 | 0.00 | 0.00 | 0.00 | 48 | 1010.7 |
| 20260508183550 | 18 | 276 | 11.3 | 24.1 | 0.00 | 0.00 | 0.00 | 48 | 1010.8 |
| 20260508183050 | 18 | 245 | 11.3 | 20.9 | 0.00 | 0.00 | 0.00 | 48 | 1010.8 |
| 20260508182550 | 18 | 228 | 8.0 | 8.0 | 0.00 | 0.00 | 0.00 | 47 | 1010.8 |
| 20260508182051 | 18 | 232 | 12.9 | 20.9 | 0.00 | 0.00 | 0.00 | 46 | 1010.9 |
| 20260508181551 | 19 | 239 | 9.7 | 14.5 | 0.00 | 0.00 | 0.00 | 46 | 1010.9 |
| 20260508181050 | 19 | 312 | 8.0 | 22.5 | 0.00 | 0.00 | 0.00 | 46 | 1010.9 |
| 20260508180551 | 20 | 245 | 9.7 | 9.7 | 0.00 | 0.00 | 0.00 | 46 | 1011.0 |
| 20260508180051 | 20 | 217 | 8.0 | 14.5 | 0.00 | 0.00 | 0.00 | 47 | 1011.2 |
| 20260508175551 | 19 | 199 | 4.8 | 9.7 | 0.00 | 0.00 | 0.00 | 48 | 1011.1 |
| 20260508175051 | 19 | 283 | 8.0 | 9.7 | 0.00 | 0.00 | 0.00 | 47 | 1011.2 |
| 20260508174551 | 19 | 259 | 8.0 | 11.3 | 0.00 | 0.00 | 0.00 | 47 | 1011.3 |
| 20260508174051 | 20 | 223 | 8.0 | 9.7 | 0.00 | 0.00 | 0.00 | 47 | 1011.2 |
| 20260508173551 | 20 | 291 | 3.2 | 4.8 | 0.00 | 0.00 | 0.00 | 49 | 1011.6 |
| 20260508173050 | 19 | 233 | 3.2 | 9.7 | 0.00 | 0.00 | 0.00 | 50 | 1011.6 |
| 20260508172550 | 18 | 252 | 8.0 | 19.3 | 0.00 | 0.00 | 0.00 | 51 | 1011.7 |
| 20260508172050 | 18 | 215 | 9.7 | 14.5 | 0.00 | 0.00 | 0.00 | 50 | 1011.7 |
| 20260508171550 | 18 | 217 | 9.7 | 16.1 | 0.00 | 0.00 | 0.00 | 50 | 1011.9 |
| 20260508171050 | 18 | 259 | 8.0 | 11.3 | 0.00 | 0.00 | 0.00 | 50 | 1012.2 |
| 20260508170552 | 18 | 247 | 9.7 | 9.7 | 0.00 | 0.00 | 0.00 | 50 | 1012.3 |
| 20260508170052 | 17 | 205 | 4.8 | 11.3 | 0.00 | 0.00 | 0.00 | 53 | 1012.4 |
| 20260508165550 | 17 | 239 | 11.3 | 29.0 | 0.00 | 0.00 | 0.00 | 52 | 1012.5 |
| 20260508165050 | 17 | 236 | 3.2 | 9.7 | 0.00 | 0.00 | 0.00 | 52 | 1012.6 |
| 20260508164550 | 17 | 283 | 4.8 | 11.3 | 0.00 | 0.00 | 0.00 | 53 | 1012.7 |
| 20260508164050 | 17 | 212 | 4.8 | 12.9 | 0.00 | 0.00 | 0.00 | 53 | 1012.7 |
| 20260508163550 | 17 | 243 | 4.8 | 9.7 | 0.00 | 0.00 | 0.00 | 52 | 1012.7 |
| 20260508163051 | 17 | 253 | 8.0 | 12.9 | 0.00 | 0.00 | 0.00 | 51 | 1012.7 |
| 20260508162551 | 17 | 271 | 8.0 | 9.7 | 0.00 | 0.00 | 0.00 | 50 | 1012.8 |
| 20260508162051 | 17 | 255 | 8.0 | 11.3 | 0.00 | 0.00 | 0.00 | 50 | 1012.7 |
| 20260508161552 | 17 | 198 | 4.8 | 9.7 | 0.00 | 0.00 | 0.00 | 50 | 1012.8 |
| 20260508161052 | 18 | 247 | 4.8 | 12.9 | 0.00 | 0.00 | 0.00 | 51 | 1012.9 |
| 20260508160552 | 17 | 256 | 9.7 | 14.5 | 0.00 | 0.00 | 0.00 | 51 | 1012.9 |
| 20260508160051 | 17 | 205 | 4.8 | 12.9 | 0.00 | 0.00 | 0.00 | 53 | 1012.9 |
| 20260508155551 | 16 | 254 | 4.8 | 9.7 | 0.00 | 0.00 | 0.00 | 54 | 1013.0 |
| 20260508155051 | 16 | 299 | 4.8 | 11.3 | 0.00 | 0.00 | 0.00 | 53 | 1013.0 |
| 20260508154551 | 16 | 273 | 4.8 | 8.0 | 0.00 | 0.00 | 0.00 | 53 | 1013.1 |
| 20260508154051 | 16 | 287 | 4.8 | 9.7 | 0.00 | 0.00 | 0.00 | 52 | 1013.1 |
| 20260508153552 | 16 | 270 | 4.8 | 9.7 | 0.00 | 0.00 | 0.00 | 54 | 1013.1 |
| 20260508153052 | 16 | 317 | 1.6 | 4.8 | 0.00 | 0.00 | 0.00 | 54 | 1013.1 |
| 20260508152551 | 16 | 234 | 4.8 | 9.7 | 0.00 | 0.00 | 0.00 | 53 | 1013.1 |
| 20260508152051 | 17 | 249 | 8.0 | 9.7 | 0.00 | 0.00 | 0.00 | 52 | 1013.1 |
| 20260508151551 | 16 | 249 | 3.2 | 4.8 | 0.00 | 0.00 | 0.00 | 54 | 1013.1 |
| 20260508151051 | 16 | 216 | 3.2 | 12.9 | 0.00 | 0.00 | 0.00 | 54 | 1013.1 |
| 20260508150551 | 16 | 296 | 1.6 | 3.2 | 0.00 | 0.00 | 0.00 | 56 | 1013.3 |
| 20260508150053 | 16 | 256 | 3.2 | 9.7 | 0.00 | 0.00 | 0.00 | 55 | 1013.4 |
| 20260508145552 | 15 | 10 | 1.6 | 3.2 | 0.00 | 0.00 | 0.00 | 57 | 1013.4 |
| 20260508145051 | 15 | 342 | 8.0 | 11.3 | 0.00 | 0.00 | 0.00 | 56 | 1013.5 |
| 20260508144551 | 14 | 176 | 3.2 | 3.2 | 0.00 | 0.00 | 0.00 | 59 | 1013.6 |
| 20260508144051 | 14 | 254 | 3.2 | 9.7 | 0.00 | 0.00 | 0.00 | 60 | 1013.6 |
| 20260508143552 | 13 | 252 | 3.2 | 8.0 | 0.00 | 0.00 | 0.00 | 58 | 1013.8 |
| 20260508143051 | 13 | 152 | 1.6 | 1.6 | 0.00 | 0.00 | 0.00 | 60 | 1013.8 |
| 20260508142551 | 13 | 285 | 3.2 | 11.3 | 0.00 | 0.00 | 0.00 | 59 | 1013.8 |
| 20260508142051 | 13 | 225 | 1.6 | 4.8 | 0.00 | 0.00 | 0.00 | 61 | 1013.8 |
| 20260508141551 | 13 | 257 | 1.6 | 4.8 | 0.00 | 0.00 | 0.00 | 60 | 1013.8 |
| 20260508141052 | 13 | 250 | 3.2 | 9.7 | 0.00 | 0.00 | 0.00 | 62 | 1013.9 |
| 20260508140552 | 12 | 242 | 1.6 | 8.0 | 0.00 | 0.00 | 0.00 | 64 | 1013.9 |
| 20260508140051 | 12 | 274 | 1.6 | 1.6 | 0.00 | 0.00 | 0.00 | 62 | 1014.0 |
| 20260508135552 | 12 | 249 | 3.2 | 9.7 | 0.00 | 0.00 | 0.00 | 63 | 1014.1 |
| 20260508135052 | 11 | 242 | 1.6 | 3.2 | 0.00 | 0.00 | 0.00 | 64 | 1014.1 |
| 20260508134552 | 11 | 252 | 3.2 | 4.8 | 0.00 | 0.00 | 0.00 | 65 | 1014.0 |
| 20260508134052 | 11 | 227 | 4.8 | 9.7 | 0.00 | 0.00 | 0.00 | 65 | 1013.9 |
| 20260508133552 | 11 | 254 | 1.6 | 1.6 | 0.00 | 0.00 | 0.00 | 66 | 1013.9 |
| 20260508133052 | 11 | 228 | 3.2 | 8.0 | 0.00 | 0.00 | 0.00 | 67 | 1014.0 |
| 20260508132552 | 11 | 230 | 3.2 | 9.7 | 0.00 | 0.00 | 0.00 | 66 | 1013.9 |
| 20260508132052 | 10 | 238 | 3.2 | 4.8 | 0.00 | 0.00 | 0.00 | 67 | 1013.9 |
| 20260508131552 | 10 | 226 | 3.2 | 3.2 | 0.00 | 0.00 | 0.00 | 67 | 1013.9 |
| 20260508131051 | 10 | 232 | 3.2 | 9.7 | 0.00 | 0.00 | 0.00 | 67 | 1013.9 |
| 20260508130552 | 10 | 232 | 1.6 | 4.8 | 0.00 | 0.00 | 0.00 | 66 | 1013.9 |
| 20260508130051 | 10 | 237 | 4.8 | 9.7 | 0.00 | 0.00 | 0.00 | 66 | 1013.9 |
| 20260508125551 | 10 | 237 | 1.6 | 9.7 | 0.00 | 0.00 | 0.00 | 66 | 1013.9 |
| 20260508125051 | 10 | 232 | 3.2 | 4.8 | 0.00 | 0.00 | 0.00 | 66 | 1013.9 |
| 20260508124551 | 10 | 241 | 1.6 | 3.2 | 0.00 | 0.00 | 0.00 | 66 | 1013.9 |
| 20260508124052 | 10 | 223 | 3.2 | 8.0 | 0.00 | 0.00 | 0.00 | 65 | 1013.9 |
| 20260508123550 | 10 | 232 | 4.8 | 9.7 | 0.00 | 0.00 | 0.00 | 65 | 1013.9 |
| 20260508123052 | 10 | 251 | 1.6 | 4.8 | 0.00 | 0.00 | 0.00 | 67 | 1013.8 |
| 20260508122552 | 10 | 225 | 4.8 | 8.0 | 0.00 | 0.00 | 0.00 | 67 | 1013.8 |
| 20260508122052 | 10 | 232 | 1.6 | 1.6 | 0.00 | 0.00 | 0.00 | 68 | 1013.8 |
| 20260508121552 | 9 | 235 | 3.2 | 3.2 | 0.00 | 0.00 | 0.00 | 68 | 1013.8 |
| 20260508121051 | 9 | 212 | 3.2 | 4.8 | 0.00 | 0.00 | 0.00 | 69 | 1013.7 |
| 20260508120552 | 9 | 218 | 3.2 | 4.8 | 0.00 | 0.00 | 0.00 | 69 | 1013.8 |
| 20260508120052 | 9 | 218 | 1.6 | 3.2 | 0.00 | 0.00 | 0.00 | 69 | 1013.8 |
| 20260508115551 | 9 | 224 | 1.6 | 3.2 | 0.00 | 0.00 | 0.00 | 69 | 1013.8 |
| 20260508115051 | 8 | 223 | 1.6 | 3.2 | 0.00 | 0.00 | 0.00 | 69 | 1013.8 |
| 20260508114551 | 8 | 195 | 3.2 | 3.2 | 0.00 | 0.00 | 0.00 | 69 | 1013.7 |
| 20260508114052 | 8 | 220 | 1.6 | 3.2 | 0.00 | 0.00 | 0.00 | 70 | 1013.7 |
| 20260508113552 | 8 | 215 | 1.6 | 3.2 | 0.00 | 0.00 | 0.00 | 70 | 1013.6 |
| 20260508113051 | 8 | 218 | 1.6 | 3.2 | 0.00 | 0.00 | 0.00 | 71 | 1013.6 |
| 20260508112552 | 8 | 219 | 0.0 | 1.6 | 0.00 | 0.00 | 0.00 | 71 | 1013.5 |
| 20260508112052 | 8 | 226 | 0.0 | 0.0 | 0.00 | 0.00 | 0.00 | 71 | 1013.4 |
| 20260508111552 | 7 | 223 | 1.6 | 1.6 | 0.00 | 0.00 | 0.00 | 71 | 1013.5 |
| 20260508111051 | 7 | 217 | 1.6 | 3.2 | 0.00 | 0.00 | 0.00 | 71 | 1013.4 |
| 20260508110550 | 7 | 212 | 1.6 | 3.2 | 0.00 | 0.00 | 0.00 | 71 | 1013.4 |
| 20260508110052 | 7 | 231 | 1.6 | 3.2 | 0.00 | 0.00 | 0.00 | 71 | 1013.4 |
| 20260508105552 | 7 | 224 | 1.6 | 4.8 | 0.00 | 0.00 | 0.00 | 71 | 1013.3 |
| 20260508105052 | 7 | 224 | 1.6 | 3.2 | 0.00 | 0.00 | 0.00 | 70 | 1013.3 |
| 20260508104551 | 7 | 225 | 1.6 | 1.6 | 0.00 | 0.00 | 0.00 | 70 | 1013.3 |
| 20260508104050 | 7 | 234 | 1.6 | 3.2 | 0.00 | 0.00 | 0.00 | 70 | 1013.3 |
| 20260508103550 | 7 | 238 | 1.6 | 4.8 | 0.00 | 0.00 | 0.00 | 70 | 1013.2 |
| 20260508103052 | 7 | 220 | 1.6 | 4.8 | 0.00 | 0.00 | 0.00 | 70 | 1013.2 |
| 20260508102551 | 7 | 250 | 1.6 | 3.2 | 0.00 | 0.00 | 0.00 | 70 | 1013.2 |
| 20260508102051 | 7 | 235 | 3.2 | 4.8 | 0.00 | 0.00 | 0.00 | 70 | 1013.2 |
| 20260508101551 | 7 | 224 | 1.6 | 8.0 | 0.00 | 0.00 | 0.00 | 70 | 1013.1 |
| 20260508101050 | 7 | 229 | 1.6 | 1.6 | 0.00 | 0.00 | 0.00 | 69 | 1013.1 |
| 20260508100552 | 7 | 226 | 0.0 | 0.0 | 0.00 | 0.00 | 0.00 | 69 | 1013.2 |
| 20260508100052 | 7 | 244 | 1.6 | 9.7 | 0.00 | 0.00 | 0.00 | 69 | 1013.2 |
| 20260508095552 | 7 | 238 | 4.8 | 9.7 | 0.00 | 0.00 | 0.00 | 69 | 1013.2 |
| 20260508095052 | 7 | 224 | 3.2 | 3.2 | 0.00 | 0.00 | 0.00 | 69 | 1013.1 |
| 20260508094551 | 7 | 226 | 3.2 | 8.0 | 0.00 | 0.00 | 0.00 | 69 | 1013.2 |
| 20260508094051 | 7 | 227 | 3.2 | 8.0 | 0.00 | 0.00 | 0.00 | 69 | 1013.2 |
| 20260508093551 | 7 | 228 | 1.6 | 8.0 | 0.00 | 0.00 | 0.00 | 69 | 1013.1 |
| 20260508093051 | 7 | 198 | 1.6 | 4.8 | 0.00 | 0.00 | 0.00 | 69 | 1013.2 |
| 20260508092551 | 7 | 220 | 0.0 | 1.6 | 0.00 | 0.00 | 0.00 | 69 | 1013.1 |
| 20260508092051 | 7 | 221 | 3.2 | 3.2 | 0.00 | 0.00 | 0.00 | 69 | 1013.1 |
| 20260508091551 | 7 | 247 | 0.0 | 0.0 | 0.00 | 0.00 | 0.00 | 69 | 1013.1 |
| 20260508091051 | 7 | 216 | 3.2 | 4.8 | 0.00 | 0.00 | 0.00 | 69 | 1013.2 |
| 20260508090551 | 7 | 215 | 1.6 | 3.2 | 0.00 | 0.00 | 0.00 | 69 | 1013.2 |
| 20260508090051 | 7 | 224 | 1.6 | 4.8 | 0.00 | 0.00 | 0.00 | 68 | 1013.3 |
| 20260508085551 | 7 | 224 | 1.6 | 4.8 | 0.00 | 0.00 | 0.00 | 68 | 1013.3 |
| 20260508085051 | 7 | 221 | 1.6 | 3.2 | 0.00 | 0.00 | 0.00 | 69 | 1013.3 |
| 20260508084551 | 7 | 242 | 0.0 | 1.6 | 0.00 | 0.00 | 0.00 | 68 | 1013.4 |
| 20260508084050 | 7 | 242 | 0.0 | 1.6 | 0.00 | 0.00 | 0.00 | 68 | 1013.3 |
| 20260508083550 | 8 | 225 | 0.0 | 1.6 | 0.00 | 0.00 | 0.00 | 68 | 1013.3 |
| 20260508083052 | 8 | 233 | 0.0 | 3.2 | 0.00 | 0.00 | 0.00 | 68 | 1013.3 |
| 20260508082552 | 8 | 232 | 1.6 | 3.2 | 0.00 | 0.00 | 0.00 | 67 | 1013.3 |
| 20260508082052 | 8 | 214 | 0.0 | 3.2 | 0.00 | 0.00 | 0.00 | 67 | 1013.3 |
| 20260508081550 | 8 | 224 | 1.6 | 1.6 | 0.00 | 0.00 | 0.00 | 67 | 1013.3 |
| 20260508081050 | 8 | 215 | 1.6 | 3.2 | 0.00 | 0.00 | 0.00 | 67 | 1013.3 |
| 20260508080550 | 8 | 242 | 1.6 | 3.2 | 0.00 | 0.00 | 0.00 | 67 | 1013.3 |
| 20260508080051 | 8 | 241 | 0.0 | 4.8 | 0.00 | 0.00 | 0.00 | 67 | 1013.3 |
| 20260508075551 | 8 | 221 | 1.6 | 1.6 | 0.00 | 0.00 | 0.00 | 67 | 1013.3 |
| 20260508075051 | 8 | 235 | 1.6 | 1.6 | 0.00 | 0.00 | 0.00 | 67 | 1013.4 |
| 20260508074551 | 8 | 207 | 0.0 | 1.6 | 0.00 | 0.00 | 0.00 | 67 | 1013.3 |
| 20260508074052 | 8 | 231 | 0.0 | 0.0 | 0.00 | 0.00 | 0.00 | 67 | 1013.4 |
| 20260508073551 | 8 | 214 | 0.0 | 0.0 | 0.00 | 0.00 | 0.00 | 66 | 1013.4 |
| 20260508073051 | 8 | 226 | 0.0 | 0.0 | 0.00 | 0.00 | 0.00 | 66 | 1013.4 |
| 20260508072551 | 8 | 230 | 0.0 | 1.6 | 0.00 | 0.00 | 0.00 | 66 | 1013.4 |
| 20260508072051 | 8 | 226 | 0.0 | 1.6 | 0.00 | 0.00 | 0.00 | 65 | 1013.5 |
| 20260508071550 | 8 | 242 | 0.0 | 0.0 | 0.00 | 0.00 | 0.00 | 65 | 1013.5 |
| 20260508071050 | 8 | 229 | 3.2 | 4.8 | 0.00 | 0.00 | 0.00 | 65 | 1013.5 |
| 20260508070551 | 9 | 226 | 0.0 | 3.2 | 0.00 | 0.00 | 0.00 | 64 | 1013.6 |
| 20260508070051 | 9 | 314 | 0.0 | 0.0 | 0.00 | 0.00 | 0.00 | 63 | 1013.6 |
| 20260508065550 | 9 | 235 | 1.6 | 3.2 | 0.00 | 0.00 | 0.00 | 63 | 1013.6 |
| 20260508065051 | 10 | 229 | 1.6 | 3.2 | 0.00 | 0.00 | 0.00 | 62 | 1013.7 |
| 20260508064551 | 10 | 230 | 0.0 | 1.6 | 0.00 | 0.00 | 0.00 | 61 | 1013.7 |
| 20260508064051 | 10 | 258 | 1.6 | 4.8 | 0.00 | 0.00 | 0.00 | 61 | 1013.7 |
| 20260508063550 | 10 | 234 | 3.2 | 9.7 | 0.00 | 0.00 | 0.00 | 62 | 1013.7 |
| 20260508063050 | 10 | 234 | 3.2 | 8.0 | 0.00 | 0.00 | 0.00 | 62 | 1013.7 |
| 20260508062550 | 10 | 134 | 1.6 | 3.2 | 0.00 | 0.00 | 0.00 | 64 | 1013.8 |
| 20260508062052 | 10 | 85 | 1.6 | 4.8 | 0.00 | 0.00 | 0.00 | 64 | 1014.0 |
| 20260508061552 | 10 | 13 | 1.6 | 3.2 | 0.00 | 0.00 | 0.00 | 63 | 1014.2 |
| 20260508061051 | 10 | 11 | 8.0 | 12.9 | 0.00 | 0.00 | 0.00 | 60 | 1014.1 |
| 20260508060551 | 10 | 232 | 1.6 | 4.8 | 0.00 | 0.00 | 0.00 | 60 | 1013.6 |
| 20260508060050 | 10 | 236 | 4.8 | 9.7 | 0.00 | 0.00 | 0.00 | 60 | 1013.5 |
| 20260508055550 | 10 | 241 | 0.0 | 3.2 | 0.00 | 0.00 | 0.00 | 60 | 1013.7 |
| 20260508055052 | 10 | 241 | 3.2 | 4.8 | 0.00 | 0.00 | 0.00 | 60 | 1013.6 |
| 20260508054550 | 10 | 255 | 4.8 | 9.7 | 0.00 | 0.00 | 0.00 | 60 | 1013.7 |
| 20260508054050 | 10 | 233 | 3.2 | 9.7 | 0.00 | 0.00 | 0.00 | 61 | 1013.7 |
| 20260508053550 | 10 | 225 | 3.2 | 4.8 | 0.00 | 0.00 | 0.00 | 61 | 1013.7 |
| 20260508053050 | 10 | 242 | 1.6 | 3.2 | 0.00 | 0.00 | 0.00 | 62 | 1013.7 |
| 20260508052550 | 10 | 202 | 0.0 | 3.2 | 0.00 | 0.00 | 0.00 | 62 | 1013.7 |
| 20260508052051 | 10 | 235 | 1.6 | 4.8 | 0.00 | 0.00 | 0.00 | 62 | 1013.8 |
| 20260508051551 | 10 | 231 | 0.0 | 0.0 | 0.00 | 0.00 | 0.00 | 63 | 1013.8 |
| 20260508051050 | 10 | 206 | 0.0 | 0.0 | 0.00 | 0.00 | 0.00 | 63 | 1013.7 |
| 20260508050551 | 10 | 215 | 1.6 | 3.2 | 0.00 | 0.00 | 0.00 | 63 | 1013.8 |
| 20260508050051 | 10 | 228 | 1.6 | 3.2 | 0.00 | 0.00 | 0.00 | 63 | 1013.9 |
| 20260508045552 | 10 | 239 | 1.6 | 4.8 | 0.00 | 0.00 | 0.00 | 64 | 1013.8 |
| 20260508045051 | 10 | 219 | 4.8 | 9.7 | 0.00 | 0.00 | 0.00 | 63 | 1013.8 |
| 20260508044551 | 10 | 221 | 0.0 | 0.0 | 0.00 | 0.00 | 0.00 | 64 | 1013.8 |
| 20260508044051 | 10 | 226 | 1.6 | 3.2 | 0.00 | 0.00 | 0.00 | 64 | 1013.8 |
| 20260508043550 | 10 | 230 | 0.0 | 0.0 | 0.00 | 0.00 | 0.00 | 64 | 1013.9 |
| 20260508043052 | 10 | 210 | 0.0 | 0.0 | 0.00 | 0.00 | 0.00 | 63 | 1013.9 |
| 20260508042551 | 10 | 217 | 1.6 | 4.8 | 0.00 | 0.00 | 0.00 | 63 | 1013.9 |
| 20260508042050 | 10 | 220 | 0.0 | 0.0 | 0.00 | 0.00 | 0.00 | 64 | 1014.0 |
| 20260508041550 | 10 | 227 | 0.0 | 1.6 | 0.00 | 0.00 | 0.00 | 63 | 1014.0 |
| 20260508041050 | 10 | 240 | 0.0 | 0.0 | 0.00 | 0.00 | 0.00 | 63 | 1014.0 |
| 20260508040552 | 10 | 240 | 0.0 | 0.0 | 0.00 | 0.00 | 0.00 | 63 | 1014.0 |
| 20260508040052 | 10 | 251 | 1.6 | 1.6 | 0.00 | 0.00 | 0.00 | 62 | 1014.0 |
| 20260508035551 | 10 | 130 | 0.0 | 0.0 | 0.00 | 0.00 | 0.00 | 61 | 1014.1 |
| 20260508035051 | 10 | 129 | 0.0 | 1.6 | 0.00 | 0.00 | 0.00 | 61 | 1014.1 |
| 20260508034551 | 10 | 224 | 0.0 | 0.0 | 0.00 | 0.00 | 0.00 | 60 | 1014.1 |
| 20260508034053 | 10 | 224 | 0.0 | 0.0 | 0.00 | 0.00 | 0.00 | 59 | 1014.0 |
| 20260508033552 | 10 | 252 | 0.0 | 0.0 | 0.00 | 0.00 | 0.00 | 60 | 1014.1 |
| 20260508033052 | 10 | 245 | 0.0 | 1.6 | 0.00 | 0.00 | 0.00 | 59 | 1014.0 |
| 20260508032552 | 10 | 172 | 0.0 | 0.0 | 0.00 | 0.00 | 0.00 | 61 | 1013.9 |
| 20260508032052 | 10 | 172 | 0.0 | 0.0 | 0.00 | 0.00 | 0.00 | 61 | 1013.9 |
| 20260508031552 | 10 | 172 | 0.0 | 0.0 | 0.00 | 0.00 | 0.00 | 61 | 1013.9 |
| 20260508031052 | 10 | 172 | 0.0 | 0.0 | 0.00 | 0.00 | 0.00 | 61 | 1013.8 |
| 20260508030551 | 10 | 172 | 0.0 | 0.0 | 0.00 | 0.00 | 0.00 | 61 | 1013.8 |
| 20260508030051 | 10 | 172 | 0.0 | 0.0 | 0.00 | 0.00 | 0.00 | 62 | 1013.8 |
| 20260508025551 | 9 | 172 | 0.0 | 0.0 | 0.00 | 0.00 | 0.00 | 62 | 1013.8 |
| 20260508025051 | 10 | 221 | 0.0 | 0.0 | 0.00 | 0.00 | 0.00 | 62 | 1013.8 |
| 20260508024552 | 9 | 221 | 0.0 | 0.0 | 0.00 | 0.00 | 0.00 | 62 | 1013.8 |
| 20260508024051 | 9 | 230 | 0.0 | 0.0 | 0.00 | 0.00 | 0.00 | 63 | 1013.8 |
| 20260508023551 | 9 | 225 | 0.0 | 0.0 | 0.00 | 0.00 | 0.00 | 63 | 1013.8 |
| 20260508023051 | 9 | 220 | 0.0 | 0.0 | 0.00 | 0.00 | 0.00 | 64 | 1013.7 |
| 20260508022551 | 9 | 221 | 0.0 | 0.0 | 0.00 | 0.00 | 0.00 | 64 | 1013.7 |
| 20260508022051 | 10 | 239 | 0.0 | 0.0 | 0.00 | 0.00 | 0.00 | 62 | 1013.8 |
| 20260508021552 | 10 | 239 | 0.0 | 0.0 | 0.00 | 0.00 | 0.00 | 62 | 1013.8 |
| 20260508021052 | 10 | 239 | 0.0 | 0.0 | 0.00 | 0.00 | 0.00 | 61 | 1013.9 |
| 20260508020552 | 10 | 235 | 0.0 | 0.0 | 0.00 | 0.00 | 0.00 | 62 | 1013.8 |
| 20260508020052 | 10 | 235 | 0.0 | 0.0 | 0.00 | 0.00 | 0.00 | 61 | 1013.8 |
| 20260508015551 | 10 | 235 | 0.0 | 0.0 | 0.00 | 0.00 | 0.00 | 60 | 1013.9 |
| 20260508015052 | 10 | 235 | 0.0 | 0.0 | 0.00 | 0.00 | 0.00 | 59 | 1013.9 |
| 20260508014552 | 10 | 228 | 0.0 | 0.0 | 0.00 | 0.00 | 0.00 | 59 | 1013.9 |
| 20260508014052 | 10 | 228 | 0.0 | 0.0 | 0.00 | 0.00 | 0.00 | 59 | 1013.8 |
| 20260508013552 | 10 | 228 | 0.0 | 0.0 | 0.00 | 0.00 | 0.00 | 58 | 1013.9 |
| 20260508013051 | 10 | 228 | 0.0 | 0.0 | 0.00 | 0.00 | 0.00 | 58 | 1013.8 |
| 20260508012552 | 10 | 228 | 0.0 | 0.0 | 0.00 | 0.00 | 0.00 | 58 | 1013.8 |
| 20260508012052 | 10 | 228 | 0.0 | 0.0 | 0.00 | 0.00 | 0.00 | 58 | 1013.9 |
| 20260508011551 | 10 | 228 | 0.0 | 0.0 | 0.00 | 0.00 | 0.00 | 59 | 1013.9 |
| 20260508011051 | 10 | 228 | 0.0 | 0.0 | 0.00 | 0.00 | 0.00 | 58 | 1013.9 |
| 20260508010552 | 10 | 228 | 0.0 | 0.0 | 0.00 | 0.00 | 0.00 | 57 | 1013.8 |
| 20260508010052 | 11 | 228 | 0.0 | 0.0 | 0.00 | 0.00 | 0.00 | 56 | 1013.7 |
| 20260508005551 | 11 | 228 | 0.0 | 0.0 | 0.00 | 0.00 | 0.00 | 55 | 1013.8 |
| 20260508005051 | 11 | 228 | 0.0 | 0.0 | 0.00 | 0.00 | 0.00 | 54 | 1013.8 |
| 20260508004551 | 11 | 228 | 0.0 | 0.0 | 0.00 | 0.00 | 0.00 | 53 | 1013.8 |
| 20260508004050 | 11 | 228 | 0.0 | 0.0 | 0.00 | 0.00 | 0.00 | 52 | 1013.7 |
| 20260508003551 | 11 | 228 | 0.0 | 0.0 | 0.00 | 0.00 | 0.00 | 51 | 1013.7 |
| 20260508003051 | 11 | 228 | 0.0 | 0.0 | 0.00 | 0.00 | 0.00 | 51 | 1013.7 |